Location: Corte Bragagnani
(45.3000°N, 11.1000°E)
Time: 01:27:59
(UTC+00:00)

SPOT 5 - Pass Details

Date: 09 April 2020
Orbit: 624 x 814 km, 98.3° (Epoch: 30 May)

Event Time Altitude Azimuth Distance (km) Brightness Sun altitude
Exits shadow 20:31:40 40° 36° (NE) 923 3.4 -25.1°
Drops below altitude 10° 20:34:57 10° 358° (N) 2,008 5.7 -25.5°
Sets 20:37:12 0° 352° (N) 2,925 6.8 -25.8°
